Location: Ariel
(45.9570°N, 122.5700°W)
Time: 01:31:17
(UTC-07:00)

Transit 4A - Pass Details

Date: 21 July 2019
Orbit: 863 x 981 km, 66.8° (Epoch: 18 August)

Event Time Altitude Azimuth Distance (km) Brightness Sun altitude
Rises 09:58:29 0° 329° (NNW) 3,683 10.7 42.3°
Reaches altitude 10° 10:01:23 10° 339° (NNW) 2,723 10.2 42.8°
Maximum altitude 10:07:05 33° 42° (NE) 1,550 9.8 43.8°
Drops below altitude 10° 10:12:37 10° 106° (ESE) 2,650 11.4 44.7°
Sets 10:15:23 0° 115° (ESE) 3,571 11.7 45.1°
